Flag for Germany Weather past 2 weeks in Trier, Rhineland-Palatinate, Germany

Now
53 °F

Light rain. Overcast.


Feels Like: 52 °F
Forecast: 52 / 64 °F
Wind: 5 mph from Southwest

Location: Trier-Petrisberg

Current Time: Apr 26, 2015 at 1:51:42 AM

Latest Report: Apr 26, 2015 at 1:00 AM


Visibility: 6 mi

Pressure: 29.83 "Hg

Humidity: 96%

Dew point: 52 °F

Location of TrierLocation

Historic Weather in Trier — Graph

°F

Trier temperature yesterday

Maximum temperature yesterday: 60 °F (at 3:00 PM)
Minimum temperature yesterday: 50 °F (at 5:00 AM)
Average temperature yesterday: 54 °F

Past Weeks' High & Low Weather Summary

 TemperatureHumidityPressure
High77 °F (Apr 15, 4:00 PM)99% (Apr 25, 12:00 PM)30.48 "Hg (Apr 25, 12:00 PM)
Low34 °F (Apr 19, 7:00 AM)14% (Apr 21, 5:00 PM)29.79 "Hg (Apr 25, 5:00 PM)
Average54 °F61%30.17 "Hg
* Reported Midnight between Apr 10 and Apr 11 — Midnight between Apr 25 and Apr 26, Trier, Weather by CustomWeather, © 2015

Note: Actual official high and low records may vary slightly from our data, if they occured in-between our weather recording intervals... More about our weather records

Advertising

Trier weather history for previous 24 hours

 ConditionsComfort  
Time TempWeatherWind HumidityBarometerVisibility
12:00 AM
Sun, Apr 26
52 °FPassing clouds.5 mph97%29.84 "Hg8 mi
11:00 PM
Sat, Apr 25
52 °FPassing clouds.3 mph94%29.84 "HgN/A
10:00 PM54 °FPassing clouds.5 mph89%29.83 "Hg14 mi
9:00 PM56 °FOvercast.5 mph82%29.82 "Hg22 mi
8:00 PM58 °FOvercast.5 mph79%29.80 "Hg25 mi
7:00 PM59 °FOvercast.5 mph75%29.80 "Hg25 mi
6:00 PM59 °FOvercast.6 mph78%29.80 "Hg25 mi
5:00 PM60 °FOvercast.7 mph76%29.79 "Hg25 mi
4:00 PM58 °FLight rain. Overcast.7 mph80%29.80 "Hg16 mi
3:00 PM60 °FLight rain. Overcast.7 mph78%29.81 "Hg16 mi
2:00 PM57 °FOvercast.7 mph87%29.82 "Hg12 mi
1:00 PM58 °FOvercast.6 mph93%29.83 "Hg7 mi
12:00 PM53 °FLight rain. Overcast.2 mph99%29.84 "Hg5 mi
11:00 AM52 °FLight rain. Overcast.2 mph95%29.84 "Hg7 mi
10:00 AM51 °FLight rain. Overcast.2 mph94%29.85 "Hg11 mi
9:00 AM51 °FLight rain. Overcast.2 mph90%29.85 "Hg15 mi
8:00 AM51 °FLight rain. Overcast.1 mph77%29.84 "Hg13 mi
7:00 AM52 °FLight rain. Overcast.2 mph73%29.83 "Hg14 mi
6:00 AM52 °FLight rain. Overcast.2 mph73%29.83 "Hg15 mi
5:00 AM50 °FOvercast.1 mph82%29.84 "Hg14 mi
4:00 AM51 °FOvercast.1 mph74%29.84 "Hg18 mi
3:00 AM51 °FOvercast.1 mph74%29.85 "Hg18 mi
1:00 AM53 °FPassing clouds.2 mph66%29.87 "Hg22 mi
Weather by CustomWeather, © 2015

See weather overviewHow to use our weather pages